contact:dominique.lefevre@mio.osupytheas.fr, maurice.libes@osupytheas.fr, didier.mallarino@osupytheas.fr
Project:EMSO http://www.emso-fr.org/EMSO-France
Depth: 2436.0 m
Title:EMSO Ligure Ouest : Data MII capteur MICROCAT
DateTime_Computer,Latitude,Longitude,Temperature,Conductivity,Pressure,DateTime_Instrument
DateTime_Computer,Latitude,Longitude,degC,S m-1,dbar,DateTime_Instrument
2020-09-10T00:00:24Z,42.805,6.029,13.2978,4.59979,2470.18,2020-9-10T02:01:15Z
2020-09-10T00:03:28Z,42.805,6.029,13.2976,4.59978,2470.171,2020-9-10T02:04:19Z
2020-09-10T00:06:31Z,42.805,6.029,13.2977,4.59978,2470.18,2020-9-10T02:07:22Z
2020-09-10T00:09:33Z,42.805,6.029,13.2975,4.59979,2470.171,2020-9-10T02:10:25Z
2020-09-10T00:12:35Z,42.805,6.029,13.2976,4.59977,2470.171,2020-9-10T02:13:26Z
2020-09-10T00:15:37Z,42.805,6.029,13.2971,4.59979,2470.156,2020-9-10T02:16:28Z
2020-09-10T00:18:39Z,42.805,6.029,13.2978,4.59978,2470.156,2020-9-10T02:19:30Z
2020-09-10T00:21:43Z,42.805,6.029,13.2977,4.59979,2470.18,2020-9-10T02:22:34Z
2020-09-10T00:24:45Z,42.805,6.029,13.2971,4.59978,2470.156,2020-9-10T02:25:36Z
2020-09-10T00:27:49Z,42.805,6.029,13.2970,4.59976,2470.147,2020-9-10T02:28:40Z
2020-09-10T00:30:54Z,42.805,6.029,13.2976,4.59978,2470.18,2020-9-10T02:31:45Z
2020-09-10T00:33:56Z,42.805,6.029,13.2976,4.59977,2470.133,2020-9-10T02:34:48Z
2020-09-10T00:36:58Z,42.805,6.029,13.2974,4.59978,2470.147,2020-9-10T02:37:49Z
2020-09-10T00:40:02Z,42.805,6.029,13.2974,4.59978,2470.124,2020-9-10T02:40:54Z
2020-09-10T00:43:04Z,42.805,6.029,13.2973,4.59976,2470.156,2020-9-10T02:43:55Z
2020-09-10T00:46:07Z,42.805,6.029,13.2974,4.59977,2470.133,2020-9-10T02:46:58Z
2020-09-10T00:49:11Z,42.805,6.029,13.2973,4.59978,2470.156,2020-9-10T02:50:02Z
2020-09-10T00:52:16Z,42.805,6.029,13.2971,4.59976,2470.133,2020-9-10T02:53:07Z
2020-09-10T00:55:17Z,42.805,6.029,13.2973,4.59976,2470.171,2020-9-10T02:56:08Z
2020-09-10T00:58:18Z,42.805,6.029,13.2975,4.59976,2470.156,2020-9-10T02:59:09Z
2020-09-10T01:01:23Z,42.805,6.029,13.2975,4.59977,2470.124,2020-9-10T03:02:14Z
2020-09-10T01:04:28Z,42.805,6.029,13.2974,4.59978,2470.11,2020-9-10T03:05:19Z
2020-09-10T01:07:32Z,42.805,6.029,13.2973,4.59977,2470.133,2020-9-10T03:08:23Z
2020-09-10T01:10:35Z,42.805,6.029,13.2971,4.59978,2470.133,2020-9-10T03:11:26Z
2020-09-10T01:13:37Z,42.805,6.029,13.2976,4.59978,2470.11,2020-9-10T03:14:28Z
2020-09-10T01:16:39Z,42.805,6.029,13.2974,4.59978,2470.147,2020-9-10T03:17:30Z
2020-09-10T01:19:43Z,42.805,6.029,13.2976,4.59977,2470.1,2020-9-10T03:20:34Z
2020-09-10T01:22:48Z,42.805,6.029,13.2976,4.59978,2470.11,2020-9-10T03:23:39Z
2020-09-10T01:25:51Z,42.805,6.029,13.2972,4.59977,2470.11,2020-9-10T03:26:42Z
2020-09-10T01:28:54Z,42.805,6.029,13.2976,4.59978,2470.11,2020-9-10T03:29:45Z
2020-09-10T01:31:58Z,42.805,6.029,13.2976,4.59978,2470.133,2020-9-10T03:32:50Z
2020-09-10T01:35:02Z,42.805,6.029,13.2974,4.59978,2470.124,2020-9-10T03:35:53Z
2020-09-10T01:38:05Z,42.805,6.029,13.2975,4.59978,2470.133,2020-9-10T03:38:57Z
2020-09-10T01:41:09Z,42.805,6.029,13.2977,4.59978,2470.133,2020-9-10T03:41:58Z
2020-09-10T01:44:10Z,42.805,6.029,13.2976,4.59976,2470.133,2020-9-10T03:45:01Z
2020-09-10T01:47:13Z,42.805,6.029,13.2978,4.59978,2470.133,2020-9-10T03:48:04Z
2020-09-10T01:50:16Z,42.805,6.029,13.2974,4.59978,2470.11,2020-9-10T03:51:08Z
2020-09-10T01:53:18Z,42.805,6.029,13.2974,4.59978,2470.124,2020-9-10T03:54:09Z
2020-09-10T01:56:23Z,42.805,6.029,13.2976,4.59978,2470.11,2020-9-10T03:57:14Z
2020-09-10T01:59:25Z,42.805,6.029,13.2974,4.59978,2470.133,2020-9-10T04:00:16Z
2020-09-10T02:02:29Z,42.805,6.029,13.2979,4.59978,2470.124,2020-9-10T04:03:21Z
2020-09-10T02:05:32Z,42.805,6.029,13.2978,4.59977,2470.147,2020-9-10T04:06:23Z
2020-09-10T02:08:35Z,42.805,6.029,13.2974,4.59977,2470.133,2020-9-10T04:09:26Z
2020-09-10T02:11:39Z,42.805,6.029,13.2972,4.59976,2470.11,2020-9-10T04:12:30Z
2020-09-10T02:14:43Z,42.805,6.029,13.2974,4.59976,2470.087,2020-9-10T04:15:34Z
2020-09-10T02:17:45Z,42.805,6.029,13.2975,4.59978,2470.133,2020-9-10T04:18:36Z
2020-09-10T02:20:46Z,42.805,6.029,13.2971,4.59977,2470.11,2020-9-10T04:21:37Z
2020-09-10T02:23:50Z,42.805,6.029,13.2971,4.59979,2470.11,2020-9-10T04:24:41Z
2020-09-10T02:26:52Z,42.805,6.029,13.2977,4.59977,2470.11,2020-9-10T04:27:43Z
2020-09-10T02:29:55Z,42.805,6.029,13.2976,4.59978,2470.1,2020-9-10T04:30:47Z
2020-09-10T02:32:59Z,42.805,6.029,13.2974,4.59976,2470.11,2020-9-10T04:33:50Z
2020-09-10T02:36:03Z,42.805,6.029,13.2975,4.59976,2470.124,2020-9-10T04:36:55Z
2020-09-10T02:39:06Z,42.805,6.029,13.2975,4.59976,2470.133,2020-9-10T04:39:57Z
2020-09-10T02:42:07Z,42.805,6.029,13.2973,4.59978,2470.1,2020-9-10T04:42:58Z
2020-09-10T02:45:09Z,42.805,6.029,13.2975,4.59977,2470.11,2020-9-10T04:46:00Z
2020-09-10T02:48:12Z,42.805,6.029,13.2971,4.59976,2470.11,2020-9-10T04:49:03Z
2020-09-10T02:51:14Z,42.805,6.029,13.2974,4.59978,2470.1,2020-9-10T04:52:06Z
2020-09-10T02:54:19Z,42.805,6.029,13.2976,4.59978,2470.087,2020-9-10T04:55:10Z
2020-09-10T02:57:21Z,42.805,6.029,13.2975,4.59978,2470.1,2020-9-10T04:58:12Z
2020-09-10T03:00:25Z,42.805,6.029,13.2976,4.59976,2470.124,2020-9-10T05:01:16Z
2020-09-10T03:03:26Z,42.805,6.029,13.2972,4.59976,2470.11,2020-9-10T05:04:18Z
2020-09-10T03:06:30Z,42.805,6.029,13.2971,4.59976,2470.1,2020-9-10T05:07:21Z
2020-09-10T03:09:32Z,42.805,6.029,13.2973,4.59976,2470.087,2020-9-10T05:10:23Z
2020-09-10T03:12:33Z,42.805,6.029,13.2968,4.59976,2470.124,2020-9-10T05:13:24Z
2020-09-10T03:15:36Z,42.805,6.029,13.2973,4.59976,2470.087,2020-9-10T05:16:27Z
2020-09-10T03:18:39Z,42.805,6.029,13.2974,4.59976,2470.11,2020-9-10T05:19:30Z
2020-09-10T03:21:44Z,42.805,6.029,13.2974,4.59976,2470.087,2020-9-10T05:22:35Z
2020-09-10T03:24:49Z,42.805,6.029,13.2973,4.59976,2470.087,2020-9-10T05:25:40Z
2020-09-10T03:27:50Z,42.805,6.029,13.2972,4.59975,2470.1,2020-9-10T05:28:42Z
2020-09-10T03:30:53Z,42.805,6.029,13.2971,4.59974,2470.063,2020-9-10T05:31:45Z
2020-09-10T03:33:58Z,42.805,6.029,13.2976,4.59978,2470.124,2020-9-10T05:34:49Z
2020-09-10T03:37:00Z,42.805,6.029,13.2974,4.59976,2470.087,2020-9-10T05:37:51Z
2020-09-10T03:40:04Z,42.805,6.029,13.2973,4.59976,2470.1,2020-9-10T05:40:55Z
2020-09-10T03:43:07Z,42.805,6.029,13.2974,4.59976,2470.063,2020-9-10T05:43:58Z
2020-09-10T03:46:10Z,42.805,6.029,13.2972,4.59976,2470.077,2020-9-10T05:47:02Z
2020-09-10T03:49:13Z,42.805,6.029,13.2972,4.59978,2470.077,2020-9-10T05:50:04Z
2020-09-10T03:52:16Z,42.805,6.029,13.2975,4.59977,2470.1,2020-9-10T05:53:07Z
2020-09-10T03:55:19Z,42.805,6.029,13.2974,4.59977,2470.087,2020-9-10T05:56:10Z
2020-09-10T03:58:21Z,42.805,6.029,13.2969,4.59976,2470.087,2020-9-10T05:59:12Z
2020-09-10T04:01:25Z,42.805,6.029,13.2975,4.59976,2470.087,2020-9-10T06:02:16Z
2020-09-10T04:04:27Z,42.805,6.029,13.2976,4.59976,2470.077,2020-9-10T06:05:19Z
2020-09-10T04:07:31Z,42.805,6.029,13.2975,4.59976,2470.063,2020-9-10T06:08:23Z
2020-09-10T04:10:33Z,42.805,6.029,13.2972,4.59976,2470.077,2020-9-10T06:11:24Z
2020-09-10T04:13:36Z,42.805,6.029,13.2976,4.59982,2470.087,2020-9-10T06:14:27Z
2020-09-10T04:16:40Z,42.805,6.029,13.2977,4.59977,2470.077,2020-9-10T06:17:31Z
2020-09-10T04:19:42Z,42.805,6.029,13.2974,4.59976,2470.063,2020-9-10T06:20:33Z
2020-09-10T04:22:44Z,42.805,6.029,13.2971,4.59976,2470.063,2020-9-10T06:23:36Z
2020-09-10T04:25:47Z,42.805,6.029,13.2973,4.59977,2470.087,2020-9-10T06:26:38Z
2020-09-10T04:28:51Z,42.805,6.029,13.2975,4.59978,2470.087,2020-9-10T06:29:42Z
2020-09-10T04:31:54Z,42.805,6.029,13.2974,4.59976,2470.077,2020-9-10T06:32:45Z
2020-09-10T04:34:57Z,42.805,6.029,13.2975,4.59976,2470.1,2020-9-10T06:35:49Z
2020-09-10T04:38:01Z,42.805,6.029,13.2972,4.59976,2470.063,2020-9-10T06:38:52Z
2020-09-10T04:41:05Z,42.805,6.029,13.2974,4.59978,2470.077,2020-9-10T06:41:56Z
2020-09-10T04:44:08Z,42.805,6.029,13.2971,4.59976,2470.1,2020-9-10T06:44:59Z
2020-09-10T04:47:13Z,42.805,6.029,13.2977,4.59975,2470.124,2020-9-10T06:48:04Z
2020-09-10T04:50:14Z,42.805,6.029,13.2973,4.59976,2470.063,2020-9-10T06:51:05Z
2020-09-10T04:53:16Z,42.805,6.029,13.2973,4.59977,2470.1,2020-9-10T06:54:07Z
2020-09-10T04:56:17Z,42.805,6.029,13.2971,4.59976,2470.063,2020-9-10T06:57:09Z
2020-09-10T04:59:21Z,42.805,6.029,13.2974,4.59976,2470.1,2020-9-10T07:00:12Z
2020-09-10T05:02:24Z,42.805,6.029,13.2975,4.59974,2470.053,2020-9-10T07:03:15Z
2020-09-10T05:05:27Z,42.805,6.029,13.2974,4.59975,2470.087,2020-9-10T07:06:18Z
2020-09-10T05:08:31Z,42.805,6.029,13.2967,4.59977,2470.063,2020-9-10T07:09:22Z
2020-09-10T05:11:34Z,42.805,6.029,13.2973,4.59976,2470.077,2020-9-10T07:12:25Z
2020-09-10T05:14:37Z,42.805,6.029,13.2972,4.59976,2470.087,2020-9-10T07:15:29Z
2020-09-10T05:17:40Z,42.805,6.029,13.2971,4.59976,2470.077,2020-9-10T07:18:32Z
2020-09-10T05:20:44Z,42.805,6.029,13.2971,4.59975,2470.063,2020-9-10T07:21:35Z
2020-09-10T05:23:47Z,42.805,6.029,13.2971,4.59976,2470.04,2020-9-10T07:24:38Z
2020-09-10T05:26:50Z,42.805,6.029,13.2973,4.59976,2470.063,2020-9-10T07:27:41Z
2020-09-10T05:29:54Z,42.805,6.029,13.2974,4.59975,2470.077,2020-9-10T07:30:45Z
2020-09-10T05:32:57Z,42.805,6.029,13.2969,4.59976,2470.077,2020-9-10T07:33:48Z
2020-09-10T05:36:00Z,42.805,6.029,13.2971,4.59975,2470.077,2020-9-10T07:36:51Z
2020-09-10T05:39:03Z,42.805,6.029,13.2976,4.59975,2470.087,2020-9-10T07:39:55Z
2020-09-10T05:42:07Z,42.805,6.029,13.2971,4.59974,2470.063,2020-9-10T07:42:58Z
2020-09-10T05:45:10Z,42.805,6.029,13.2975,4.59976,2470.063,2020-9-10T07:46:01Z
2020-09-10T05:48:13Z,42.805,6.029,13.2979,4.59975,2470.063,2020-9-10T07:49:04Z
2020-09-10T05:51:16Z,42.805,6.029,13.2971,4.59975,2470.063,2020-9-10T07:52:08Z
2020-09-10T05:54:20Z,42.805,6.029,13.2971,4.59977,2470.063,2020-9-10T07:55:11Z
2020-09-10T05:57:23Z,42.805,6.029,13.2971,4.59974,2470.087,2020-9-10T07:58:14Z
2020-09-10T06:00:24Z,42.805,6.029,13.2974,4.59975,2470.053,2020-9-10T08:01:16Z
2020-09-10T06:03:28Z,42.805,6.029,13.2976,4.59976,2470.04,2020-9-10T08:04:19Z
2020-09-10T06:06:31Z,42.805,6.029,13.2974,4.59974,2470.063,2020-9-10T08:07:22Z
2020-09-10T06:09:35Z,42.805,6.029,13.2973,4.59975,2470.04,2020-9-10T08:10:27Z
2020-09-10T06:12:39Z,42.805,6.029,13.2976,4.59978,2470.04,2020-9-10T08:13:31Z
2020-09-10T06:15:43Z,42.805,6.029,13.2973,4.59975,2470.077,2020-9-10T08:16:34Z
2020-09-10T06:18:47Z,42.805,6.029,13.2973,4.59975,2470.077,2020-9-10T08:19:38Z
2020-09-10T06:21:50Z,42.805,6.029,13.2972,4.59976,2470.04,2020-9-10T08:22:41Z
2020-09-10T06:24:51Z,42.805,6.029,13.2974,4.59976,2470.063,2020-9-10T08:25:43Z
2020-09-10T06:27:56Z,42.805,6.029,13.2975,4.59975,2470.063,2020-9-10T08:28:47Z
2020-09-10T06:30:59Z,42.805,6.029,13.2968,4.59974,2470.053,2020-9-10T08:31:50Z
2020-09-10T06:34:02Z,42.805,6.029,13.2977,4.59976,2470.087,2020-9-10T08:34:54Z
2020-09-10T06:37:05Z,42.805,6.029,13.2970,4.59974,2470.017,2020-9-10T08:37:57Z
2020-09-10T06:40:10Z,42.805,6.029,13.2973,4.59973,2470.087,2020-9-10T08:41:01Z
2020-09-10T06:43:14Z,42.805,6.029,13.2971,4.59976,2470.063,2020-9-10T08:44:05Z
2020-09-10T06:46:19Z,42.805,6.029,13.2974,4.59975,2470.063,2020-9-10T08:47:10Z
2020-09-10T06:49:22Z,42.805,6.029,13.2971,4.59976,2470.077,2020-9-10T08:50:14Z
2020-09-10T06:52:26Z,42.805,6.029,13.2971,4.59976,2470.017,2020-9-10T08:53:17Z
2020-09-10T06:55:29Z,42.805,6.029,13.2974,4.59975,2470.03,2020-9-10T08:56:20Z
2020-09-10T06:58:32Z,42.805,6.029,13.2974,4.59974,2470.063,2020-9-10T08:59:24Z
2020-09-10T07:01:36Z,42.805,6.029,13.2974,4.59974,2470.063,2020-9-10T09:02:27Z
2020-09-10T07:04:37Z,42.805,6.029,13.2969,4.59975,2470.049,2020-9-10T09:05:28Z
2020-09-10T07:07:40Z,42.805,6.029,13.2972,4.59973,2470.053,2020-9-10T09:08:31Z
2020-09-10T07:10:41Z,42.805,6.029,13.2971,4.59975,2470.063,2020-9-10T09:11:33Z
2020-09-10T07:13:45Z,42.805,6.029,13.2972,4.59977,2470.077,2020-9-10T09:14:36Z
2020-09-10T07:16:46Z,42.805,6.029,13.2971,4.59975,2470.04,2020-9-10T09:17:38Z
2020-09-10T07:19:51Z,42.805,6.029,13.2974,4.59975,2470.04,2020-9-10T09:20:42Z
2020-09-10T07:22:54Z,42.805,6.029,13.2976,4.59975,2470.077,2020-9-10T09:23:45Z
2020-09-10T07:25:58Z,42.805,6.029,13.2973,4.59976,2470.077,2020-9-10T09:26:49Z
2020-09-10T07:29:01Z,42.805,6.029,13.2976,4.59974,2470.04,2020-9-10T09:29:53Z
2020-09-10T07:32:03Z,42.805,6.029,13.2975,4.59975,2470.063,2020-9-10T09:32:54Z
2020-09-10T07:35:06Z,42.805,6.029,13.2970,4.59975,2470.017,2020-9-10T09:35:57Z
2020-09-10T07:38:09Z,42.805,6.029,13.2979,4.59974,2470.063,2020-9-10T09:39:00Z
2020-09-10T07:41:13Z,42.805,6.029,13.2973,4.59975,2470.1,2020-9-10T09:42:04Z
2020-09-10T07:44:15Z,42.805,6.029,13.2974,4.59974,2470.017,2020-9-10T09:45:06Z
2020-09-10T07:47:20Z,42.805,6.029,13.2972,4.59975,2470.03,2020-9-10T09:48:11Z
2020-09-10T07:50:24Z,42.805,6.029,13.2975,4.59975,2470.053,2020-9-10T09:51:15Z
2020-09-10T07:53:25Z,42.805,6.029,13.2974,4.59975,2470.1,2020-9-10T09:54:16Z
2020-09-10T07:56:29Z,42.805,6.029,13.2976,4.59976,2470.063,2020-9-10T09:57:20Z
2020-09-10T07:59:31Z,42.805,6.029,13.2974,4.59976,2470.053,2020-9-10T10:00:22Z
2020-09-10T08:02:34Z,42.805,6.029,13.2974,4.59975,2470.077,2020-9-10T10:03:26Z
2020-09-10T08:05:36Z,42.805,6.029,13.2974,4.59977,2470.063,2020-9-10T10:06:28Z
2020-09-10T08:08:41Z,42.805,6.029,13.2976,4.59974,2470.053,2020-9-10T10:09:32Z
2020-09-10T08:11:43Z,42.805,6.029,13.2974,4.59975,2470.077,2020-9-10T10:12:34Z
2020-09-10T08:14:46Z,42.805,6.029,13.2975,4.59974,2470.04,2020-9-10T10:15:37Z
2020-09-10T08:17:51Z,42.805,6.029,13.2973,4.59976,2470.063,2020-9-10T10:18:42Z
2020-09-10T08:20:54Z,42.805,6.029,13.2972,4.59973,2470.087,2020-9-10T10:21:45Z
2020-09-10T08:23:55Z,42.805,6.029,13.2975,4.59974,2470.063,2020-9-10T10:24:47Z
2020-09-10T08:26:56Z,42.805,6.029,13.2974,4.59975,2470.063,2020-9-10T10:27:48Z
2020-09-10T08:29:59Z,42.805,6.029,13.2976,4.59973,2470.087,2020-9-10T10:30:50Z
2020-09-10T08:33:03Z,42.805,6.029,13.2972,4.59976,2470.1,2020-9-10T10:33:54Z
2020-09-10T08:36:05Z,42.805,6.029,13.2973,4.59973,2470.087,2020-9-10T10:36:56Z
2020-09-10T08:39:09Z,42.805,6.029,13.2971,4.59974,2470.1,2020-9-10T10:40:01Z
2020-09-10T08:42:13Z,42.805,6.029,13.2973,4.59974,2470.063,2020-9-10T10:43:04Z
2020-09-10T08:45:16Z,42.805,6.029,13.2974,4.59975,2470.11,2020-9-10T10:46:08Z
2020-09-10T08:48:18Z,42.805,6.029,13.2972,4.59973,2470.11,2020-9-10T10:49:10Z
2020-09-10T08:51:21Z,42.805,6.029,13.2973,4.59973,2470.087,2020-9-10T10:52:12Z
2020-09-10T08:54:24Z,42.805,6.029,13.2975,4.59973,2470.1,2020-9-10T10:55:15Z
2020-09-10T08:57:28Z,42.805,6.029,13.2973,4.59974,2470.087,2020-9-10T10:58:19Z
2020-09-10T09:00:31Z,42.805,6.029,13.2976,4.59974,2470.087,2020-9-10T11:01:22Z
2020-09-10T09:03:34Z,42.805,6.029,13.2976,4.59974,2470.063,2020-9-10T11:04:26Z
2020-09-10T09:06:38Z,42.805,6.029,13.2974,4.59973,2470.1,2020-9-10T11:07:29Z
2020-09-10T09:09:41Z,42.805,6.029,13.2973,4.59973,2470.087,2020-9-10T11:10:32Z
2020-09-10T09:12:44Z,42.805,6.029,13.2975,4.59973,2470.11,2020-9-10T11:13:36Z
2020-09-10T09:15:47Z,42.805,6.029,13.2974,4.59973,2470.063,2020-9-10T11:16:38Z
2020-09-10T09:18:51Z,42.805,6.029,13.2974,4.59973,2470.124,2020-9-10T11:19:42Z
2020-09-10T09:21:56Z,42.805,6.029,13.2973,4.59975,2470.087,2020-9-10T11:22:47Z
2020-09-10T09:24:59Z,42.805,6.029,13.2968,4.59975,2470.11,2020-9-10T11:25:50Z
2020-09-10T09:28:02Z,42.805,6.029,13.2970,4.59974,2470.1,2020-9-10T11:28:54Z
2020-09-10T09:31:06Z,42.805,6.029,13.2974,4.59973,2470.124,2020-9-10T11:31:57Z
2020-09-10T09:34:09Z,42.805,6.029,13.2976,4.59973,2470.124,2020-9-10T11:35:00Z
2020-09-10T09:37:10Z,42.805,6.029,13.2973,4.59974,2470.11,2020-9-10T11:38:01Z
2020-09-10T09:40:13Z,42.805,6.029,13.2971,4.59975,2470.11,2020-9-10T11:41:04Z
2020-09-10T09:43:15Z,42.805,6.029,13.2968,4.59974,2470.11,2020-9-10T11:44:06Z
2020-09-10T09:46:18Z,42.805,6.029,13.2971,4.59974,2470.133,2020-9-10T11:47:09Z
2020-09-10T09:49:21Z,42.805,6.029,13.2971,4.59973,2470.124,2020-9-10T11:50:12Z
2020-09-10T09:52:24Z,42.805,6.029,13.2974,4.59975,2470.11,2020-9-10T11:53:15Z
2020-09-10T09:55:28Z,42.805,6.029,13.2969,4.59974,2470.124,2020-9-10T11:56:20Z
2020-09-10T09:58:32Z,42.805,6.029,13.2975,4.59974,2470.11,2020-9-10T11:59:23Z
2020-09-10T10:01:36Z,42.805,6.029,13.2974,4.59975,2470.11,2020-9-10T12:02:28Z
2020-09-10T10:04:40Z,42.805,6.029,13.2974,4.59976,2470.087,2020-9-10T12:05:31Z
2020-09-10T10:07:41Z,42.805,6.029,13.2971,4.59975,2470.147,2020-9-10T12:08:33Z
2020-09-10T10:10:44Z,42.805,6.029,13.2973,4.59975,2470.133,2020-9-10T12:11:35Z
2020-09-10T10:13:48Z,42.805,6.029,13.2975,4.59975,2470.133,2020-9-10T12:14:40Z
2020-09-10T10:16:50Z,42.805,6.029,13.2976,4.59973,2470.124,2020-9-10T12:17:41Z
2020-09-10T10:19:53Z,42.805,6.029,13.2976,4.59974,2470.133,2020-9-10T12:20:45Z
2020-09-10T10:22:57Z,42.805,6.029,13.2976,4.59974,2470.156,2020-9-10T12:23:48Z
2020-09-10T10:26:00Z,42.805,6.029,13.2975,4.59973,2470.119,2020-9-10T12:26:51Z
2020-09-10T10:29:04Z,42.805,6.029,13.2974,4.59975,2470.133,2020-9-10T12:29:56Z
2020-09-10T10:32:09Z,42.805,6.029,13.2974,4.59974,2470.133,2020-9-10T12:33:00Z
2020-09-10T10:35:13Z,42.805,6.029,13.2976,4.59975,2470.124,2020-9-10T12:36:04Z
2020-09-10T10:38:14Z,42.805,6.029,13.2972,4.59975,2470.171,2020-9-10T12:39:05Z
2020-09-10T10:41:18Z,42.805,6.029,13.2973,4.59974,2470.147,2020-9-10T12:42:10Z
2020-09-10T10:44:20Z,42.805,6.029,13.2973,4.59975,2470.124,2020-9-10T12:45:12Z
2020-09-10T10:47:25Z,42.805,6.029,13.2971,4.59974,2470.133,2020-9-10T12:48:16Z
2020-09-10T10:50:29Z,42.805,6.029,13.2974,4.59975,2470.147,2020-9-10T12:51:20Z
2020-09-10T10:53:30Z,42.805,6.029,13.2974,4.59975,2470.133,2020-9-10T12:54:22Z
2020-09-10T10:56:34Z,42.805,6.029,13.2974,4.59974,2470.171,2020-9-10T12:57:25Z
2020-09-10T10:59:36Z,42.805,6.029,13.2973,4.59974,2470.156,2020-9-10T13:00:27Z
2020-09-10T11:02:41Z,42.805,6.029,13.2971,4.59975,2470.171,2020-9-10T13:03:32Z
2020-09-10T11:05:44Z,42.805,6.029,13.2972,4.59976,2470.194,2020-9-10T13:06:36Z
2020-09-10T11:08:46Z,42.805,6.029,13.2975,4.59976,2470.156,2020-9-10T13:09:37Z
2020-09-10T11:11:47Z,42.805,6.029,13.2971,4.59976,2470.133,2020-9-10T13:12:38Z
2020-09-10T11:14:50Z,42.805,6.029,13.2969,4.59975,2470.156,2020-9-10T13:15:42Z
2020-09-10T11:17:54Z,42.805,6.029,13.2977,4.59975,2470.156,2020-9-10T13:18:44Z
2020-09-10T11:20:57Z,42.805,6.029,13.2974,4.59975,2470.133,2020-9-10T13:21:48Z
2020-09-10T11:24:00Z,42.805,6.029,13.2973,4.59978,2470.147,2020-9-10T13:24:52Z
2020-09-10T11:27:04Z,42.805,6.029,13.2975,4.59975,2470.147,2020-9-10T13:27:55Z
2020-09-10T11:30:07Z,42.805,6.029,13.2973,4.59976,2470.133,2020-9-10T13:30:58Z
2020-09-10T11:33:12Z,42.805,6.029,13.2973,4.59977,2470.156,2020-9-10T13:34:03Z
2020-09-10T11:36:15Z,42.805,6.029,13.2970,4.59976,2470.133,2020-9-10T13:37:07Z
2020-09-10T11:39:17Z,42.805,6.029,13.2974,4.59975,2470.18,2020-9-10T13:40:09Z
2020-09-10T11:42:22Z,42.805,6.029,13.2977,4.59978,2470.171,2020-9-10T13:43:13Z
2020-09-10T11:45:27Z,42.805,6.029,13.2971,4.59978,2470.156,2020-9-10T13:46:18Z
2020-09-10T11:48:30Z,42.805,6.029,13.2970,4.59979,2470.133,2020-9-10T13:49:22Z
2020-09-10T11:51:35Z,42.805,6.029,13.2974,4.59976,2470.147,2020-9-10T13:52:26Z
2020-09-10T11:54:38Z,42.805,6.029,13.2973,4.59976,2470.171,2020-9-10T13:55:30Z
2020-09-10T11:57:42Z,42.805,6.029,13.2970,4.59979,2470.133,2020-9-10T13:58:34Z
2020-09-10T12:00:47Z,42.805,6.029,13.2975,4.59978,2470.171,2020-9-10T14:01:38Z
2020-09-10T12:03:52Z,42.805,6.029,13.2974,4.59978,2470.124,2020-9-10T14:04:43Z
2020-09-10T12:06:53Z,42.805,6.029,13.2973,4.59978,2470.147,2020-9-10T14:07:45Z
2020-09-10T12:09:55Z,42.805,6.029,13.2973,4.59976,2470.156,2020-9-10T14:10:46Z
2020-09-10T12:12:59Z,42.805,6.029,13.2973,4.59976,2470.133,2020-9-10T14:13:51Z
2020-09-10T12:16:01Z,42.805,6.029,13.2976,4.59978,2470.133,2020-9-10T14:16:52Z
2020-09-10T12:19:02Z,42.805,6.029,13.2969,4.59977,2470.133,2020-9-10T14:19:54Z
2020-09-10T12:22:04Z,42.805,6.029,13.2974,4.59978,2470.124,2020-9-10T14:22:55Z
2020-09-10T12:25:07Z,42.805,6.029,13.2972,4.59975,2470.133,2020-9-10T14:25:59Z
2020-09-10T12:28:11Z,42.805,6.029,13.2973,4.59982,2470.133,2020-9-10T14:29:02Z
2020-09-10T12:31:12Z,42.805,6.029,13.2971,4.59978,2470.171,2020-9-10T14:32:03Z
2020-09-10T12:34:15Z,42.805,6.029,13.2976,4.59978,2470.143,2020-9-10T14:35:07Z
2020-09-10T12:37:20Z,42.805,6.029,13.2974,4.59977,2470.171,2020-9-10T14:38:11Z
2020-09-10T12:40:26Z,42.805,6.029,13.2974,4.59975,2470.11,2020-9-10T14:41:12Z
2020-09-10T12:43:26Z,42.805,6.029,13.2977,4.59981,2470.156,2020-9-10T14:44:17Z
2020-09-10T12:46:30Z,42.805,6.029,13.2977,4.59979,2470.156,2020-9-10T14:47:22Z
2020-09-10T12:49:35Z,42.805,6.029,13.2974,4.59976,2470.133,2020-9-10T14:50:26Z
2020-09-10T12:52:37Z,42.805,6.029,13.2973,4.59976,2470.133,2020-9-10T14:53:29Z
2020-09-10T12:55:41Z,42.805,6.029,13.2973,4.59976,2470.133,2020-9-10T14:56:32Z
2020-09-10T12:58:45Z,42.805,6.029,13.2979,4.59978,2470.133,2020-9-10T14:59:37Z
2020-09-10T13:01:50Z,42.805,6.029,13.2974,4.59978,2470.133,2020-9-10T15:02:41Z
2020-09-10T13:04:53Z,42.805,6.029,13.2978,4.59980,2470.171,2020-9-10T15:05:45Z
2020-09-10T13:07:56Z,42.805,6.029,13.2974,4.59978,2470.171,2020-9-10T15:08:48Z
2020-09-10T13:10:59Z,42.805,6.029,13.2971,4.59979,2470.133,2020-9-10T15:11:50Z
2020-09-10T13:14:02Z,42.805,6.029,13.2974,4.59976,2470.11,2020-9-10T15:14:53Z
2020-09-10T13:17:04Z,42.805,6.029,13.2973,4.59978,2470.171,2020-9-10T15:17:55Z
2020-09-10T13:20:08Z,42.805,6.029,13.2974,4.59976,2470.11,2020-9-10T15:20:59Z
2020-09-10T13:23:10Z,42.805,6.029,13.2974,4.59976,2470.156,2020-9-10T15:24:01Z
2020-09-10T13:26:15Z,42.805,6.029,13.2973,4.59979,2470.11,2020-9-10T15:27:06Z
2020-09-10T13:29:17Z,42.805,6.029,13.2972,4.59981,2470.133,2020-9-10T15:30:08Z
2020-09-10T13:32:20Z,42.805,6.029,13.2974,4.59977,2470.11,2020-9-10T15:33:11Z
2020-09-10T13:35:23Z,42.805,6.029,13.2975,4.59978,2470.147,2020-9-10T15:36:15Z
2020-09-10T13:38:27Z,42.805,6.029,13.2974,4.59981,2470.156,2020-9-10T15:39:18Z
2020-09-10T13:41:31Z,42.805,6.029,13.2975,4.59981,2470.133,2020-9-10T15:42:23Z
2020-09-10T13:44:33Z,42.805,6.029,13.2976,4.59979,2470.133,2020-9-10T15:45:24Z
2020-09-10T13:47:38Z,42.805,6.029,13.2976,4.59978,2470.11,2020-9-10T15:48:29Z
2020-09-10T13:50:41Z,42.805,6.029,13.2972,4.59979,2470.11,2020-9-10T15:51:32Z
2020-09-10T13:53:44Z,42.805,6.029,13.2973,4.59978,2470.11,2020-9-10T15:54:35Z
2020-09-10T13:56:46Z,42.805,6.029,13.2976,4.59985,2470.156,2020-9-10T15:57:37Z
2020-09-10T13:59:51Z,42.805,6.029,13.2976,4.59980,2470.147,2020-9-10T16:00:42Z
2020-09-10T14:02:52Z,42.805,6.029,13.2975,4.59978,2470.11,2020-9-10T16:03:43Z
2020-09-10T14:05:53Z,42.805,6.029,13.2976,4.59978,2470.11,2020-9-10T16:06:45Z
2020-09-10T14:08:56Z,42.805,6.029,13.2976,4.59976,2470.124,2020-9-10T16:09:47Z
2020-09-10T14:12:00Z,42.805,6.029,13.2974,4.59979,2470.156,2020-9-10T16:12:51Z
2020-09-10T14:15:03Z,42.805,6.029,13.2971,4.59981,2470.11,2020-9-10T16:15:55Z
2020-09-10T14:18:06Z,42.805,6.029,13.2974,4.59978,2470.11,2020-9-10T16:18:57Z
2020-09-10T14:21:11Z,42.805,6.029,13.2974,4.59976,2470.11,2020-9-10T16:22:02Z
2020-09-10T14:24:14Z,42.805,6.029,13.2975,4.59978,2470.147,2020-9-10T16:25:05Z
2020-09-10T14:27:18Z,42.805,6.029,13.2976,4.59981,2470.133,2020-9-10T16:28:09Z
2020-09-10T14:30:22Z,42.805,6.029,13.2971,4.59977,2470.11,2020-9-10T16:31:13Z
2020-09-10T14:33:24Z,42.805,6.029,13.2972,4.59979,2470.156,2020-9-10T16:34:16Z
2020-09-10T14:36:28Z,42.805,6.029,13.2978,4.59982,2470.147,2020-9-10T16:37:19Z
2020-09-10T14:39:33Z,42.805,6.029,13.2975,4.59979,2470.124,2020-9-10T16:40:24Z
2020-09-10T14:42:35Z,42.805,6.029,13.2974,4.59979,2470.133,2020-9-10T16:43:26Z
2020-09-10T14:45:37Z,42.805,6.029,13.2976,4.59979,2470.133,2020-9-10T16:46:28Z
2020-09-10T14:48:40Z,42.805,6.029,13.2971,4.59979,2470.11,2020-9-10T16:49:31Z
2020-09-10T14:51:45Z,42.805,6.029,13.2973,4.59978,2470.133,2020-9-10T16:52:36Z
2020-09-10T14:54:48Z,42.805,6.029,13.2977,4.59977,2470.133,2020-9-10T16:55:39Z
2020-09-10T14:57:49Z,42.805,6.029,13.2971,4.59978,2470.124,2020-9-10T16:58:40Z
2020-09-10T15:00:51Z,42.805,6.029,13.2974,4.59981,2470.147,2020-9-10T17:01:42Z
2020-09-10T15:03:54Z,42.805,6.029,13.2976,4.59979,2470.133,2020-9-10T17:04:45Z
2020-09-10T15:06:58Z,42.805,6.029,13.2976,4.59979,2470.096,2020-9-10T17:07:49Z
2020-09-10T15:10:03Z,42.805,6.029,13.2974,4.59978,2470.147,2020-9-10T17:10:54Z
2020-09-10T15:13:07Z,42.805,6.029,13.2974,4.59978,2470.133,2020-9-10T17:13:59Z